Weather History for LELN - October, 2011

Change the Weather History Date:

Thursday, October 27, 2011

  Actual Average Record
Temperature  
Mean Temperature 50 °F -  
Max Temperature 55 °F - - ()
Min Temperature 44 °F - - ()
Degree Days  
Heating Degree Days 16    
Moisture  
Dew Point 47 °F    
Average Humidity 88    
Maximum Humidity 100    
Minimum Humidity 60    
Precipitation  
Precipitation 0.08 in - - ()
Sea Level Pressure  
Sea Level Pressure 29.73 in    
Wind  
Wind Speed 5 mph ()    
Max Wind Speed 12 mph    
Max Gust Speed -    
Visibility 6.7 miles    
Events Rain    
T = Trace of Precipitation, MM = Missing Value Source: Averaged Metar Reports

Daily Weather History Graph

Daily Weather History Graph

Search for Another Location

Airport or City:

Trip Planner

Search our weather history database for the weather conditions in past years. The results will help you decide how hot, cold, wet, or windy it might be!

Date:

Astronomy

Oct. 27, 2011 Rise Set
Actual Time 8:49 AM CEST 7:22 PM CEST
Civil Twilight 8:20 AM CEST 7:51 PM CEST
Nautical Twilight 7:47 AM CEST 8:24 PM CEST
Astronomical Twilight 7:14 AM CEST 8:57 PM CEST
Moon 9:37 AM CEST (10/27) 7:37 PM CEST (10/27)
Length of Visible Light 11h 31m
Length of Day
10h 33m
New Moon, 1% of the Moon is Illuminated
Oct 27
New Moon
Nov 2
First Quarter
Nov 10
Full
Nov 18
Last Quarter
Nov 25
New

Hourly Weather History & Observations

Time (CEST) Temp. Windchill Dew Point Humidity Pressure Visibility Wind Dir Wind Speed Gust Speed Precip Events Conditions
6:00 AM 48.2 °F - 46.4 °F 93% 29.50 in 3.7 mi SSE 9.2 mph - N/A Rain Light Rain
7:00 AM 48.2 °F - 48.2 °F 100% 29.53 in 6.2 mi South 5.8 mph - N/A   Mostly Cloudy
8:00 AM 49 °F - 48 °F 97%  in 6 mi South 6.9 mph - -   Partly Cloudy
8:00 AM 48.2 °F - 48.2 °F 100% 29.56 in 6.2 mi South 9.2 mph - N/A   Mostly Cloudy
9:00 AM 48.2 °F - 48.2 °F 100% 29.59 in 6.2 mi SSW 6.9 mph - N/A   Mostly Cloudy
9:31 AM 48.2 °F - 46.4 °F 93% 29.59 in 1.6 mi South 6.9 mph - N/A   Overcast
10:00 AM 48.2 °F - 48.2 °F 100% 29.62 in 2.5 mi South 3.5 mph - N/A   Mostly Cloudy
11:00 AM 48.2 °F - 48.2 °F 100% 29.65 in 5.0 mi Variable 2.3 mph - N/A   Mostly Cloudy
12:00 PM 51.8 °F - 48.2 °F 88% 29.68 in 6.2 mi Variable 2.3 mph - N/A   Mostly Cloudy
1:00 PM 53.6 °F - 46.4 °F 77% 29.71 in 6.2 mi Calm Calm - N/A   Scattered Clouds
2:00 PM 55 °F - 45 °F 60%  in 19 mi SW 6.9 mph - -   Partly Cloudy
2:00 PM 55.4 °F - 46.4 °F 72% 29.71 in 6.2 mi SW 4.6 mph - N/A   Scattered Clouds
3:00 PM 53.6 °F - 46.4 °F 77% 29.74 in 6.2 mi West 11.5 mph - N/A   Mostly Cloudy
4:00 PM 51.8 °F - 48.2 °F 88% 29.77 in 6.2 mi West 9.2 mph - N/A   Mostly Cloudy
5:00 PM 53.6 °F - 48.2 °F 82% 29.77 in 6.2 mi West 5.8 mph - N/A   Mostly Cloudy
6:00 PM 51.8 °F - 46.4 °F 82% 29.83 in 6.2 mi NW 8.1 mph - N/A   Mostly Cloudy
7:00 PM 51.8 °F - 48.2 °F 88% 29.86 in 6.2 mi Calm Calm - N/A   Scattered Clouds
8:00 PM 50 °F - 45 °F 76%  in 16 mi North 6.9 mph - -   Partly Cloudy
8:00 PM 48.2 °F - 44.6 °F 87% 29.89 in 6.2 mi Calm Calm - N/A   Partly Cloudy
9:00 PM 44.6 °F - 44.6 °F 100% 29.92 in 6.2 mi Variable 2.3 mph - N/A   Partly Cloudy
10:00 PM 44.6 °F 41.4 °F 42.8 °F 93% 29.98 in 6.2 mi WNW 5.8 mph - N/A   Partly Cloudy
11:00 PM 44.6 °F 40.7 °F 41.0 °F 87% 30.01 in - NW 6.9 mph - N/A   Clear